User: anonymous   Login
Location: Oshawa
(43.9000°N, 78.8670°W)
Time: 12:36:55
(UTC-05:00)
Language:

Cosmos 2333 Rocket - Orbit

View from above orbital plane
View from above orbital plane
View from above satellite
View from above satellite

Ground track
Ground track

The orbit data is extracted from the following two-line orbital elements,

1 24298U 96051B   14328.35399637 -.00000175  00000-0 -68253-4 0  6067
2 24298 070.8588 234.6542 0014241 141.0261 357.3787 14.12454500939687
Epoch (UTC): 24 November 2014 08:29:45
Eccentricity: 0.0014241
inclination: 70.8588°
perigee height: 840 km
apogee height: 861 km
right ascension of ascending node: 234.6542°
argument of perigee: 141.0261°
revolutions per day: 14.12454500
mean anomaly at epoch: 357.3787°
orbit number at epoch: 93968

The dashed part of the orbit path shows where the satellite is in the earth's shadow,  

DLR